Preview of NWS' New Version of Forecast
This preview is not operational and should not be used for support decisions.
Latest weather observations around

Raleigh / Durham, Raleigh-Durham International Airport (KRDU)

Using English Units (Switch to International System of Units)
Date/ Time (EDT) Wind (mph) Vis. (mi) Weather Sky Cond. Temp (°F) Rel. Humidity Wind Chill (°F) Heat Index (°F) Pressure Precip. (in)
Air Dwpt 6 hour Altimeter (inHg) Sea level (inHg) 1 hr 3 hr 6 hr
Max Min
Sep 16 23:51 Calm 10 Mostly Clear FEW100 FEW250 73 66     79%   74 29.99 29.98      
Sep 16 22:51 Calm 10 Mostly Clear FEW250 73 67     81%   74 29.99 29.97      
Sep 16 21:51 Calm 10 Mostly Clear FEW250 74 66     76%   75 29.99 29.97      
Sep 16 20:51 SE 6 10 Mostly Clear FEW250 78 66     67%   79 29.97 29.96      
Sep 16 19:51 SE 6 10 Mostly Clear FEW250 80 65     60%   82 29.97 29.96      
Sep 16 18:51 SE 7 10 Mostly Clear FEW250 85 65     51%   87 29.97 29.95      
Sep 16 17:51 E 5 10 Mostly Clear FEW060 FEW250 88 59     38%   87 29.97 29.95      
Sep 16 16:51 ENE 7 10 Mostly Clear FEW060 FEW250 89 61     39%   89 29.96 29.94      
Sep 16 15:51 E 10 10 Mostly Clear FEW060 FEW250 89 62     41%   90 29.98 29.96      
Sep 16 14:51 NE 6 10 Mostly Clear FEW060 FEW250 89 63     42%   90 30.01 29.99      
Sep 16 13:51 3 10 Mostly Clear FEW055 FEW250 88 61     40%   88 30.03 30.02      
Sep 16 12:51 E 5 10 Mostly Clear FEW055 FEW250 86 62     45%   87 30.06 30.04      
Sep 16 11:51 NNE 7 10 Partly Cloudy SCT032 83 65     55%   85 30.08 30.06      
Sep 16 10:51 ENE 10 10 Mostly Clear FEW020 80 71     74%   84 30.1 30.08      
Sep 16 09:51 NE 5 10 Partly Cloudy SCT006 75 72     90%   76 30.11 30.09      
Sep 16 09:43 NNE 6 10 Mostly Cloudy BKN004 73 71     94%   74 30.11        
Sep 16 08:51 NNE 6 0.25 Fog/Mist BKN002 71 71     100%   73 30.1 30.09      
Sep 16 07:51 Calm 0.25 Fog VV003 70 70     100%     30.09 30.08      
Sep 16 06:51 NE 3 0.25 Fog VV002 69 69     100%     30.08 30.07      
Sep 16 06:37 NE 3 0.25 Fog VV002 69 69     100%     30.08        
Sep 16 05:51 Calm 0.25 Fog VV002 69 69     100%     30.07 30.06      
Sep 16 05:15 NNE 3 0.5 Fog VV002 70 69     97%     30.07        
Sep 16 05:01 N 3 2 Fog/Mist VV002 70 70     100%     30.07        
Sep 16 04:51 NNE 3 6 Fog/Mist FEW003 SCT250 70 70     100%     30.07 30.06      
Sep 16 04:28 N 5 10 Mostly Clear FEW003 71 70     96%   72 30.07        
Sep 16 03:51 NNW 3 10 Mostly Clear FEW250 70 69     97%     30.07 30.05      
Sep 16 02:51 Calm 8 Mostly Clear FEW250 71 70     96%   72 30.08 30.06      
Sep 16 01:51 E 3 9 Mostly Clear FEW250 72 70     93%   73 30.09 30.07      
Sep 16 00:51 E 6 10 Partly Cloudy SCT250 74 70     87%   75 30.09 30.08      
Sep 15 23:51 ENE 6 10 Partly Cloudy SCT250 74 70     87%   75 30.1 30.08      
Sep 15 22:51 ENE 5 10 Mostly Cloudy BKN250 73 70     90%   74 30.09 30.08      
Sep 15 21:51 NNE 3 9 Mostly Cloudy BKN250 73 70     90%   74 30.09 30.08      
Sep 15 20:51 NE 3 9 Mostly Cloudy FEW040 BKN250 75 71     88%   76 30.09 30.07      
Sep 15 19:51 E 3 10 Mostly Cloudy FEW040 BKN250 80 70     71%   83 30.08 30.07      
Sep 15 18:51 E 5 10 Mostly Cloudy FEW041 BKN250 83 69     63%   87 30.08 30.07      
Sep 15 17:51 ENE 7 10 Mostly Cloudy FEW041 SCT060 BKN250 84 69     61%   88 30.08 30.07      
Sep 15 16:51 NE 8 10 Mostly Cloudy SCT037 BKN065 85 69     59%   89 30.08 30.07      
Sep 15 15:51 ENE 6 10 Mostly Cloudy SCT033 BKN050 BKN070 85 69     59%   89 30.09 30.08      
Sep 15 14:51 NE 7 10 Mostly Cloudy BKN035 BKN060 84 69     61%   88 30.11 30.1      
Sep 15 13:51 E 8 10 Mostly Cloudy FEW035 BKN055 86 69     57%   90 30.13 30.12      
Sep 15 12:51 ENE 3 10 Mostly Cloudy SCT035 BKN050 82 68     63%   85 30.15 30.14      
Sep 15 11:51 6 10 Mostly Cloudy BKN031 82 68     63%   85 30.16 30.14      
Sep 15 10:51 SE 6 10 Mostly Clear FEW027 FEW250 82 69     65%   85 30.17 30.16      
Sep 15 09:51 Calm 10 Mostly Clear FEW250 79 69     72%   80 30.18 30.16      
Sep 15 08:51 Calm 10 Mostly Clear FEW250 75 71     88%   76 30.18 30.16      
Sep 15 07:51 Calm 10 Mostly Clear FEW250 69 68     96%     30.18 30.16      
Sep 15 06:51 Calm 10 Mostly Clear FEW250 67 67     100%     30.16 30.15      
Sep 15 05:51 Calm 6 Fog/Mist SCT250 67 67     100%     30.16 30.14      
Sep 15 04:51 Calm 4 Fog/Mist SCT250 68 67     96%     30.15 30.14      
Sep 15 03:51 Calm 7 Partly Cloudy SCT250 69 68     96%     30.16 30.14      
Sep 15 02:51 Calm 10 Partly Cloudy SCT250 70 68     93%     30.17 30.15      
Sep 15 01:51 Calm 10 Partly Cloudy SCT250 70 68     93%     30.18 30.16      
Sep 15 00:51 Calm 10 Partly Cloudy FEW045 SCT250 70 68     93%     30.17 30.16      
Sep 14 23:51 Calm 10 Partly Cloudy FEW045 SCT250 70 68     93%     30.18 30.16      
Sep 14 22:51 Calm 10 Partly Cloudy FEW045 SCT250 72 69     91%   73 30.18 30.17      
Sep 14 21:51 Calm 10 Mostly Cloudy SCT045 BKN250 73 69     87%   74 30.19 30.17      
Sep 14 20:51 ESE 3 10 Mostly Cloudy SCT045 BKN250 75 69     82%   76 30.19 30.17      
Sep 14 19:51 Calm 10 Mostly Cloudy SCT045 BKN250 76 68     76%   77 30.19 30.18      
Sep 14 18:51 SSE 3 10 Mostly Cloudy BKN045 80 67     64%   82 30.19 30.18      
Sep 14 17:51 E 6 10 Mostly Cloudy BKN045 82 67     60%   85 30.19 30.17      
Sep 14 16:51 E 5 10 Mostly Cloudy BKN044 82 67     60%   85 30.2 30.19      
Sep 14 15:51 E 6 10 Cloudy BKN032 OVC040 82 67     60%   85 30.21 30.19      
Sep 14 14:51 ENE 5 10 Mostly Cloudy BKN033 BKN041 81 67     62%   83 30.23 30.22      
Sep 14 13:51 Calm 10 Mostly Cloudy FEW028 BKN040 82 67     60%   85 30.25 30.24      
Sep 14 12:51 E 9 10 Mostly Cloudy SCT026 BKN037 80 68     67%   83 30.26 30.24      
Sep 14 11:51 SSE 6 10 Mostly Cloudy SCT020 BKN037 80 68     67%   83 30.28 30.27      
Sep 14 10:51 3 10 Mostly Clear FEW014 FEW040 77 68     74%   78 30.29 30.28      
Sep 14 09:51 ENE 7 10 Cloudy FEW012 FEW022 OVC037 73 67     81%   74 30.3 30.29      
Sep 14 08:51 NE 5 10 Cloudy FEW012 SCT022 OVC034 70 66     87%     30.29 30.28      
Sep 14 08:21 NNE 7 10 Cloudy FEW010 BKN022 OVC033 69 66     90%     30.3        
Sep 14 07:51 NNE 5 10 Cloudy BKN009 OVC033 69 67     93%     30.29 30.28      
Sep 14 06:51 NE 5 9 Cloudy OVC008 69 66     90%     30.28 30.27      
Sep 14 06:03 NE 6 9 Cloudy OVC008 69 66     90%     30.27        
Sep 14 05:51 NE 6 9 Cloudy BKN010 OVC021 69 66     90%     30.27 30.26      
Sep 14 04:51 NE 5 9 Cloudy BKN010 OVC021 69 66     90%     30.26 30.25      
Sep 14 03:51 NE 5 10 Cloudy BKN010 OVC023 70 66     87%     30.27 30.25      
Sep 14 02:51 NNE 6 10 Cloudy BKN012 OVC023 70 66     87%     30.27 30.25      
Sep 14 01:51 ENE 5 10 Cloudy BKN012 OVC024 70 66     87%     30.28 30.27      
Sep 14 01:10 E 6 10 Cloudy BKN013 OVC038 70 66     87%     30.29        
Sep 14 00:51 E 8 10 Cloudy BKN017 BKN038 OVC250 71 66     84%   72 30.29 30.27      
Sep 14 00:25 E 9 10 Cloudy BKN017 BKN038 OVC250 71 66     84%   72 30.3        
May 14 23:51 SSW 10 10 Mostly Cloudy BKN250 77 67     71%   78 30.04 30.02      
May 14 03:51 SW 8 10 Mostly Cloudy BKN250 71 65     81%   72 30 29.98      
May 12 17:51 WSW 7 10 Partly Cloudy SCT070 90 64     42%   91 30.02 30      
May 12 09:51 SW 6 10 Mostly Clear FEW250 80 68     67%   83 30.14 30.12      
May 11 20:51 SSE 5 10 Mostly Cloudy FEW070 SCT150 BKN250 77 66     69%   78 30.05 30.03      
May 11 16:51 3 10 Mostly Cloudy BKN065 BKN090 BKN250 86 66     51%   88 30.02 30      
Jun 10 18:51 W 5 10 Mostly Clear FEW060 FEW250 85 62     46%   86 30.07 30.06      
Jun 10 15:51 SW 10 10 Partly Cloudy SCT060 SCT250 88 64     45%   89 30.09 30.07      
Jun 10 09:51 Calm 10 Mostly Clear FEW250 76 67     74%   77 30.12 30.11      
Jun 09 21:51 Calm 10 Mostly Clear FEW250 69 59     70%     29.99 29.98      
Jun 08 15:51 NNE 9 10 Mostly Cloudy BKN038 BKN090 BKN250 69 53     57%     29.88 29.87      
Jun 08 13:51 N 9 10 Mostly Cloudy BKN034 BKN250 70 53     55%     29.91 29.9      
Jun 08 08:51 NE 11 10 Mostly Cloudy SCT014 SCT060 BKN250 60 53     78%     29.95 29.94      
Jun 07 22:51 ENE 11 10 Mostly Cloudy FEW022 BKN085 BKN250 63 55     75%     29.98 29.98      
Jun 07 11:51 NE 9 10 Mostly Cloudy SCT035 BKN100 BKN250 72 56     57%   72 29.9 29.89      
Jun 05 19:51 Calm 4 Rain and Fog/Mist FEW006 BKN029 OVC075 69 68     96%     29.72 29.7 0   0
Jun 05 15:51 WSW 8 10 Light Rain SCT030 BKN070 BKN100 BKN250 83 75     77%   90   29.69 0